Winson, United Kingdom

11:27 AM GMT on February 24, 2017 (GMT +0000)
Fairford RAF

Weather History for EGVA - January, 2013

Change the Weather History Date:

Wednesday, January 30, 2013

  Actual Average Record
Temperature  
Mean Temperature 47 °F -  
Max Temperature 51 °F 44 °F 51 °F (2013)
Min Temperature 43 °F 34 °F 24 °F (2012)
Degree Days  
Heating Degree Days 18    
Moisture  
Dew Point 46 °F    
Average Humidity 94    
Maximum Humidity 100    
Minimum Humidity 78    
Precipitation  
Precipitation 0.35 in - - ()
Sea Level Pressure  
Sea Level Pressure 29.63 in    
Wind  
Wind Speed 16 mph ()    
Max Wind Speed 32 mph    
Max Gust Speed 44 mph    
Visibility 6.0 miles    
Events Rain    
Averages and records for this station are not official NWS values.
T = Trace of Precipitation, MM = Missing Value Source: Averaged Metar Reports

Daily Weather History Graph

Daily Weather History Graph

Search for Another Location

Airport or City:

Trip Planner

Search our weather history database for the weather conditions in past years. The results will help you decide how hot, cold, wet, or windy it might be!

Date:

Astronomy

Jan. 30, 2013 Rise Set
Actual Time 7:48 AM GMT 4:52 PM GMT
Civil Twilight 7:12 AM GMT 5:29 PM GMT
Nautical Twilight 6:31 AM GMT 6:09 PM GMT
Astronomical Twilight 5:52 AM GMT 6:49 PM GMT
Moon 9:10 PM GMT (1/30) 8:38 AM GMT (1/30)
Length of Visible Light 10h 17m
Length of Day
9h 03m
Waning Gibbous, 89% of the Moon is Illuminated
Jan 30
Waning Gibbous
Feb 3
Last Quarter
Feb 10
New
Feb 17
First Quarter
Feb 25
Full

Hourly Weather History & Observations

Time (GMT) Temp. Windchill Dew Point Humidity Pressure Visibility Wind Dir Wind Speed Gust Speed Precip Events Conditions
12:00 AM 51.8 °F - 51.8 °F 100% 29.50 in 5.6 mi West 21.9 mph 28.8 mph N/A Rain Light Rain
12:14 AM 51.8 °F - 51.8 °F 100% 29.49 in 6.2 mi West 18.4 mph - N/A Rain Light Rain
12:22 AM 51.8 °F - 50.0 °F 94% 29.50 in 6.2 mi West 18.4 mph - N/A Rain Light Rain
12:26 AM 51.8 °F - 50.0 °F 94% 29.50 in 6.2 mi West 18.4 mph - N/A Rain Light Rain
12:27 AM 51.8 °F - 50.0 °F 94% 29.50 in 6.2 mi West 17.3 mph - N/A Rain Light Rain
12:28 AM 50.0 °F - 50.0 °F 100% 29.50 in 6.2 mi West 16.1 mph - N/A Rain Light Rain
12:31 AM 50.0 °F - 50.0 °F 100% 29.50 in 5.6 mi West 16.1 mph - N/A Rain Rain
12:40 AM 50.0 °F - 50.0 °F 100% 29.49 in 5.6 mi West 13.8 mph - N/A Rain Light Rain
12:58 AM 50.4 °F - 50.0 °F 99% 29.51 in 6.2 mi West 13.8 mph - 0.06 in Rain Light Rain
1:06 AM 50.0 °F - 50.0 °F 100% 29.50 in 6.2 mi West 12.7 mph - N/A Rain Light Rain
1:09 AM 50.0 °F - 50.0 °F 100% 29.50 in 6.2 mi West 11.5 mph - N/A Rain Light Rain
1:10 AM 50.0 °F - 50.0 °F 100% 29.50 in 6.2 mi West 12.7 mph - N/A Rain Light Rain
1:11 AM 50.0 °F - 50.0 °F 100% 29.50 in 6.2 mi West 12.7 mph - N/A Rain Light Rain
1:12 AM 50.0 °F - 50.0 °F 100% 29.50 in 6.2 mi West 13.8 mph - N/A Rain Light Rain
1:21 AM 50.0 °F - 50.0 °F 100% 29.50 in 6.2 mi West 15.0 mph - N/A Rain Light Rain
1:22 AM 50.0 °F - 50.0 °F 100% 29.50 in 6.2 mi West 15.0 mph - N/A Rain Light Rain
1:36 AM 50.0 °F - 50.0 °F 100% 29.51 in 6.2 mi West 16.1 mph - N/A Rain Light Rain
1:38 AM 50.0 °F - 50.0 °F 100% 29.51 in 6.2 mi West 15.0 mph - N/A Rain Light Rain
1:40 AM 50.0 °F - 50.0 °F 100% 29.51 in 6.2 mi West 16.1 mph - N/A Rain Light Rain
1:58 AM 49.1 °F - 48.9 °F 99% 29.52 in 6.2 mi WSW 11.5 mph - 0.08 in Rain Light Rain
2:40 AM 48.2 °F - 48.2 °F 100% 29.53 in 6.2 mi WSW 10.4 mph - N/A Rain Light Rain
2:58 AM 48.2 °F - 48.0 °F 99% 29.55 in 6.2 mi WSW 11.5 mph - 0.07 in Rain Light Rain
3:33 AM 48.2 °F - 46.4 °F 93% 29.53 in 6.2 mi WSW 10.4 mph - N/A   Mostly Cloudy
3:35 AM 48.2 °F - 46.4 °F 93% 29.53 in 6.2 mi WSW 10.4 mph - N/A Rain Light Rain
3:53 AM 46.4 °F 41.5 °F 46.4 °F 100% 29.51 in 6.2 mi SSW 10.4 mph - N/A Rain Light Rain
3:58 AM 47.1 °F - 46.9 °F 99% 29.52 in 6.2 mi SW 10.4 mph - 0.03 in Rain Light Rain
4:02 AM 46.4 °F 41.5 °F 46.4 °F 100% 29.51 in 6.2 mi WSW 10.4 mph - N/A Rain Light Rain
4:08 AM 46.4 °F 41.5 °F 46.4 °F 100% 29.52 in 6.2 mi WSW 10.4 mph - N/A   Scattered Clouds
4:58 AM 46.8 °F - 46.6 °F 99% 29.55 in 6.2 mi WSW 12.7 mph - 0.00 in   Mostly Cloudy
5:37 AM 46.4 °F 39.8 °F 46.4 °F 100% 29.55 in 6.2 mi WSW 16.1 mph - N/A   Mostly Cloudy
5:58 AM 47.3 °F - 47.1 °F 99% 29.56 in 6.2 mi WSW 18.4 mph - N/A   Overcast
6:01 AM 48.2 °F - 46.4 °F 93% 29.55 in 6.2 mi WSW 18.4 mph - N/A   Overcast
6:10 AM 48.2 °F - 48.2 °F 100% 29.56 in 6.2 mi WSW 20.7 mph - N/A   Overcast
6:11 AM 48.2 °F - 48.2 °F 100% 29.56 in 6.2 mi WSW 20.7 mph - N/A   Overcast
6:39 AM 48.2 °F - 46.4 °F 93% 29.57 in 6.2 mi WSW 23.0 mph 29.9 mph N/A   Overcast
6:40 AM 48.2 °F - 48.2 °F 100% 29.57 in 6.2 mi WSW 23.0 mph 29.9 mph N/A   Overcast
6:44 AM 48.2 °F - 46.4 °F 93% 29.57 in 6.2 mi WSW 24.2 mph 29.9 mph N/A   Overcast
6:58 AM 48.2 °F - 47.1 °F 96% 29.60 in 6.2 mi WSW 23.0 mph 32.2 mph N/A   Overcast
7:44 AM 48.2 °F - 46.4 °F 93% 29.59 in 6.2 mi WSW 20.7 mph 29.9 mph N/A   Overcast
7:45 AM 48.2 °F - 46.4 °F 93% 29.59 in 6.2 mi WSW 19.6 mph 29.9 mph N/A   Overcast
7:58 AM 48.0 °F - 46.6 °F 95% 29.61 in 6.2 mi WSW 20.7 mph 28.8 mph N/A   Overcast
8:01 AM 48.2 °F - 46.4 °F 93% 29.60 in 6.2 mi WSW 18.4 mph - N/A   Overcast
8:08 AM 48.2 °F - 46.4 °F 93% 29.60 in 6.2 mi WSW 18.4 mph - N/A   Overcast
8:20 AM 48.2 °F - 46.4 °F 93% 29.61 in 6.2 mi WSW 16.1 mph - N/A   Overcast
8:21 AM 48.2 °F - 46.4 °F 93% 29.61 in 6.2 mi WSW 16.1 mph 24.2 mph N/A Rain Light Rain
8:24 AM 48.2 °F - 46.4 °F 93% 29.62 in 6.2 mi WSW 17.3 mph 24.2 mph N/A Rain Light Rain
8:35 AM 48.2 °F - 46.4 °F 93% 29.61 in - Calm Calm - N/A Rain Rain
8:36 AM 48.2 °F - 46.4 °F 93% 29.61 in 2.5 mi NNW 6.9 mph - N/A Rain Rain
8:37 AM 46.4 °F 39.0 °F 46.4 °F 100% 29.61 in 2.5 mi West 19.6 mph 28.8 mph N/A Rain Rain
8:40 AM 46.4 °F 40.7 °F 46.4 °F 100% 29.62 in 2.5 mi WSW 12.7 mph 28.8 mph N/A Rain Rain
8:44 AM 48.2 °F - 46.4 °F 93% 29.62 in 3.7 mi WSW 11.5 mph 28.8 mph N/A Rain Light Rain
8:45 AM 48.2 °F - 46.4 °F 93% 29.62 in 5.6 mi WSW 13.8 mph 28.8 mph N/A Rain Light Rain
8:46 AM 48.2 °F - 46.4 °F 93% 29.62 in 6.2 mi WSW 17.3 mph 28.8 mph N/A   Light Drizzle
8:48 AM 48.2 °F - 46.4 °F 93% 29.62 in 6.2 mi WSW 16.1 mph 20.7 mph N/A   Overcast
8:58 AM 47.7 °F - 46.6 °F 96% 29.63 in 6.2 mi WSW 16.1 mph - 0.08 in   Mostly Cloudy
8:59 AM 48.2 °F - 46.4 °F 93% 29.62 in 6.2 mi WSW 17.3 mph 25.3 mph N/A   Light Drizzle
9:00 AM 48.2 °F - 46.4 °F 93% 29.62 in 6.2 mi WSW 18.4 mph 25.3 mph N/A   Light Drizzle
9:19 AM 46.4 °F 38.1 °F 46.4 °F 100% 29.64 in 6.2 mi WSW 24.2 mph 29.9 mph N/A Rain Light Rain
9:21 AM 46.4 °F 38.7 °F 46.4 °F 100% 29.64 in 6.2 mi WSW 20.7 mph 29.9 mph N/A Rain Light Rain
9:27 AM 48.2 °F - 46.4 °F 93% 29.64 in 6.2 mi WSW 15.0 mph - N/A   Mostly Cloudy
9:39 AM 48.2 °F - 46.4 °F 93% 29.65 in 6.2 mi WSW 18.4 mph 25.3 mph N/A   Scattered Clouds
9:58 AM 48.0 °F - 43.9 °F 86% 29.68 in 6.2 mi WSW 26.5 mph 34.5 mph 0.02 in   Partly Cloudy
10:58 AM 49.1 °F - 45.9 °F 89% 29.70 in 6.2 mi WSW 24.2 mph 34.5 mph N/A   Partly Cloudy
11:12 AM 48.2 °F - 44.6 °F 87% 29.69 in 6.2 mi West 27.6 mph 35.7 mph N/A Rain Light Rain
11:15 AM 48.2 °F - 46.4 °F 93% 29.70 in 6.2 mi West 28.8 mph 35.7 mph N/A Rain Light Rain
11:22 AM 46.4 °F 37.7 °F 44.6 °F 93% 29.70 in 6.2 mi West 26.5 mph 35.7 mph N/A Rain Light Rain
11:32 AM 48.2 °F - 46.4 °F 93% 29.70 in 6.2 mi West 24.2 mph 34.5 mph N/A   Mostly Cloudy
11:47 AM 48.2 °F - 44.6 °F 87% 29.69 in 6.2 mi WSW 28.8 mph 38.0 mph N/A   Scattered Clouds
11:58 AM 49.1 °F - 44.4 °F 84% 29.71 in 6.2 mi SW 32.2 mph 43.7 mph 0.01 in   Partly Cloudy
12:58 PM 50.2 °F - 43.5 °F 78% 29.75 in 6.2 mi West 31.1 mph 43.7 mph N/A   Clear
1:58 PM 50.2 °F - 43.5 °F 78% 29.77 in 6.2 mi West 27.6 mph 36.8 mph N/A   Partly Cloudy
2:58 PM 49.8 °F - 43.3 °F 78% 29.78 in 6.2 mi WSW 24.2 mph 39.1 mph N/A   Clear
3:58 PM 48.6 °F - 42.6 °F 80% 29.82 in 6.2 mi WSW 25.3 mph 36.8 mph N/A   Clear
4:58 PM 47.5 °F - 40.8 °F 78% 29.86 in 6.2 mi West 26.5 mph 35.7 mph N/A   Scattered Clouds
5:58 PM 46.0 °F 37.4 °F 40.8 °F 82% 29.90 in 6.2 mi WSW 25.3 mph 32.2 mph N/A   Partly Cloudy
6:14 PM 46.4 °F 38.1 °F 41.0 °F 81% 29.89 in 6.2 mi West 24.2 mph 38.0 mph N/A   Mostly Cloudy
6:42 PM 46.4 °F 38.1 °F 41.0 °F 81% 29.91 in 6.2 mi West 24.2 mph 34.5 mph N/A   Scattered Clouds
6:58 PM 45.9 °F 38.0 °F 41.2 °F 84% 29.94 in 6.2 mi West 20.7 mph 31.1 mph N/A   Partly Cloudy
7:58 PM 44.1 °F 37.1 °F 40.3 °F 87% 29.97 in 6.2 mi WSW 15.0 mph - N/A   Clear
8:58 PM 44.1 °F 37.7 °F 40.6 °F 88% 29.99 in 6.2 mi WSW 12.7 mph - N/A   Clear
9:58 PM 43.0 °F 36.0 °F 40.6 °F 91% 30.01 in 6.2 mi WSW 13.8 mph - N/A   Clear
10:58 PM 43.3 °F 36.1 °F 40.5 °F 90% 30.02 in 6.2 mi WSW 15.0 mph 21.9 mph N/A   Clear
11:58 PM 43.7 °F 37.3 °F 41.2 °F 91% 30.02 in 6.2 mi SW 12.7 mph - N/A   Clear